Simultaneous Nadir Overpasses (SNOs) Predictions

Prediction of SNOs between AQUA and METOP-C Satellite Orbit:

Table of predicted SNOs for the next 14.0 days since TLE Epoch: 12/19/2020
Index Date (AQUA) Time (AQUA) Lat,Lon (AQUA) SZA (AQUA ) Date (METOP-C) Time (METOP-C) Lat,Lon (METOP-C) SZA (METOP-C ) Distance(km) Time Diff (sec)
1 12/20/2020 15:24:19 73.04, -55.30 96.41 12/20/2020 15:23:13 72.97, -58.01 96.42 88.72 66
2 12/20/2020 16:13:57 -73.71, 110.95 82.89 12/20/2020 16:13:39 -73.72, 111.00 82.88 1.74 18
3 12/20/2020 17:03:26 73.77, -81.54 97.17 12/20/2020 17:04:19 73.75, -81.60 97.16 2.33 53
4 12/23/2020 10:58:40 73.31, 10.58 96.69 12/23/2020 10:57:31 73.24, 8.98 96.67 51.78 69
5 12/23/2020 11:48:13 -73.71, 177.37 82.89 12/23/2020 11:48:03 -73.69, 177.34 82.91 2.45 10
6 12/23/2020 12:37:42 73.78, -15.13 97.18 12/23/2020 12:38:42 73.77, -15.14 97.17 0.77 60
7 12/26/2020 06:33:00 73.59, 76.43 96.91 12/26/2020 06:31:47 73.56, 76.11 96.90 10.71 73
8 12/26/2020 07:22:28 -73.73,-116.22 82.95 12/26/2020 07:22:25 -73.72,-116.19 82.96 1.28 3
9 12/26/2020 08:11:57 73.80, 51.26 97.13 12/26/2020 08:13:04 73.79, 51.31 97.11 1.59 67
10 12/29/2020 02:07:17 73.67, 142.70 96.87 12/29/2020 02:06:08 73.67, 142.78 96.88 2.72 69
11 12/29/2020 02:56:44 -73.75, -49.82 83.06 12/29/2020 02:56:48 -73.74, -49.73 83.07 2.85 4
12 12/29/2020 03:46:14 73.88, 117.53 97.08 12/29/2020 03:47:26 73.85, 117.87 97.04 10.79 72
13 12/31/2020 21:41:32 73.65,-150.82 96.66 12/31/2020 21:40:32 73.64,-150.90 96.65 2.80 60
14 12/31/2020 22:30:59 -73.72, 16.67 83.28 12/31/2020 22:31:12 -73.71, 16.60 83.29 2.48 13



Historial Predications of SNOs between AQUA and METOP-C
